Flag for U.S.A. Weather past 2 weeks in Modesto, California, U.S.A.

Now
82 °F

Clear.


Feels Like: 81 °F
Forecast: 76 / 99 °F
Wind: No wind

Location: Modesto City-County-Sham Field

Current Time: Jul 2, 2015 at 5:54:17 AM

Latest Report: Jul 2, 2015 at 4:53 AM


Visibility: 10 mi

Pressure: 29.83 "Hg

Humidity: 32%

Dew point: 49 °F

Location of ModestoLocation

Historic Weather in Modesto — Graph

°F

Modesto temperature yesterday

Maximum temperature yesterday: 102 °F (at 4:53 PM)
Minimum temperature yesterday: 81 °F (at 5:53 AM)
Average temperature yesterday: 90 °F

Past Weeks' High & Low Weather Summary

 TemperatureHumidityPressure
High104 °F (Jun 26, 3:53 PM)78% (Jun 29, 5:53 AM)30.00 "Hg (Jun 29, 5:53 AM)
Low59 °F (Jun 22, 5:53 AM)6% (Jun 18, 5:53 PM)29.73 "Hg (Jun 30, 5:53 PM)
Average82 °F30%29.86 "Hg
* Reported Jun 17 3:53 AM — Jul 2 3:53 AM, Modesto, Weather by CustomWeather, © 2015

Note: Actual official high and low records may vary slightly from our data, if they occured in-between our weather recording intervals... More about our weather records

Advertising

Modesto weather history for previous 24 hours

 ConditionsComfort  
Time TempWeatherWind HumidityBarometerVisibility
3:53 AM
Thu, Jul 2
83 °FClear.No wind28%29.83 "Hg10 mi
2:53 AM82 °FPassing clouds.6 mph31%29.82 "Hg10 mi
1:53 AM84 °FThunderstorms. Clear.12 mph29%29.81 "Hg10 mi
12:53 AM85 °FPassing clouds.5 mph21%29.85 "Hg10 mi
11:53 PM
Wed, Jul 1
87 °FClear.3 mph18%29.81 "Hg10 mi
10:53 PM87 °FClear.8 mph18%29.81 "Hg10 mi
9:53 PM88 °FClear.9 mph21%29.81 "Hg10 mi
8:53 PM91 °FSunny.14 mph17%29.79 "Hg10 mi
7:53 PM93 °FSunny.14 mph23%29.79 "Hg10 mi
6:53 PM95 °FPassing clouds.13 mph29%29.78 "Hg10 mi
5:53 PM99 °FPartly sunny.15 mph21%29.76 "Hg10 mi
4:53 PM102 °FPassing clouds.8 mph17%29.80 "Hg10 mi
3:53 PM100 °FScattered clouds.3 mph18%29.83 "Hg10 mi
2:53 PM101 °FSunny.5 mph17%29.83 "Hg10 mi
1:53 PM99 °FSunny.10 mph21%29.86 "Hg10 mi
12:53 PM98 °FSunny.10 mph18%29.87 "Hg10 mi
11:53 AM94 °FSunny.12 mph24%29.88 "Hg10 mi
10:53 AM92 °FSunny.7 mph21%29.88 "Hg10 mi
9:53 AM86 °FSunny.6 mph29%29.88 "Hg10 mi
8:53 AM82 °FSunny.9 mph35%29.85 "Hg10 mi
7:53 AM82 °FSunny.No wind26%29.80 "Hg10 mi
6:53 AM81 °FSunny.No wind26%29.77 "Hg10 mi
5:53 AM81 °FClear.3 mph25%29.75 "Hg10 mi
Weather by CustomWeather, © 2015

See weather overviewHow to use our weather pages